Time,TemperatureF,DewpointF,PressureIn,WindDirection,WindDirectionDegrees,WindSpeedMPH,WindSpeedGustMPH,Humidity,HourlyPrecipIn,Conditions,Clouds,dailyrainin,SolarRadiationWatts/m^2,SoftwareType,DateUTC
2013-04-30 00:01:00,59.0,14.0,-100.00,WSW,241,8.0,11.0,17,-99.99,,,0.00,0.000000,,2013-04-30 07:01:00,
2013-04-30 00:11:00,59.0,14.0,-100.00,WSW,241,8.0,11.0,17,-99.99,,,0.00,0.000000,,2013-04-30 07:11:00,
2013-04-30 00:42:00,55.0,14.0,-100.00,SSW,210,5.0,13.0,19,0.00,,,0.00,0.000000,,2013-04-30 07:42:00,
2013-04-30 00:52:00,55.0,14.0,-100.00,SSW,210,5.0,13.0,19,0.00,,,0.00,0.000000,,2013-04-30 07:52:00,
2013-04-30 01:02:00,55.0,14.0,-100.00,SSW,210,5.0,13.0,19,0.00,,,0.00,0.000000,,2013-04-30 08:02:00,
2013-04-30 01:11:00,55.0,14.0,-100.00,SSW,210,5.0,13.0,19,0.00,,,0.00,0.000000,,2013-04-30 08:11:00,
2013-04-30 01:42:00,37.0,16.0,-100.00,NE,49,1.0,6.0,41,0.00,,,0.00,0.000000,,2013-04-30 08:42:00,
2013-04-30 01:52:00,37.0,16.0,-100.00,NE,49,1.0,6.0,41,0.00,,,0.00,0.000000,,2013-04-30 08:52:00,
2013-04-30 03:41:00,54.0,15.0,-100.00,WSW,239,8.0,11.0,21,-99.99,,,0.00,0.000000,,2013-04-30 10:41:00,
2013-04-30 03:52:00,54.0,15.0,-100.00,WSW,239,8.0,11.0,21,-99.99,,,0.00,0.000000,,2013-04-30 10:52:00,
2013-04-30 04:01:00,54.0,15.0,-100.00,WSW,239,8.0,11.0,21,-99.99,,,0.00,0.000000,,2013-04-30 11:01:00,
2013-04-30 04:11:00,54.0,15.0,-100.00,WSW,239,8.0,11.0,21,-99.99,,,0.00,0.000000,,2013-04-30 11:11:00,
2013-04-30 04:42:00,35.0,17.0,-100.00,ENE,74,2.0,11.0,47,0.00,,,0.00,0.000000,,2013-04-30 11:42:00,
2013-04-30 06:41:00,32.0,18.0,-100.00,North,6,1.0,4.0,55,-99.99,,,0.00,19.000000,,2013-04-30 13:41:00,
2013-04-30 09:42:00,67.0,18.0,-100.00,SW,225,16.0,29.0,15,-99.99,,,0.00,651.000000,,2013-04-30 16:42:00,
2013-04-30 09:52:00,67.0,18.0,-100.00,SW,225,16.0,29.0,15,-99.99,,,0.00,651.000000,,2013-04-30 16:52:00,
2013-04-30 10:02:00,67.0,18.0,-100.00,SW,225,16.0,29.0,15,-99.99,,,0.00,651.000000,,2013-04-30 17:02:00,
2013-04-30 10:12:00,67.0,18.0,-100.00,SW,225,16.0,29.0,15,-99.99,,,0.00,651.000000,,2013-04-30 17:12:00,
2013-04-30 10:42:00,67.0,16.0,-100.00,SW,214,19.0,31.0,14,0.00,,,0.00,752.000000,,2013-04-30 17:42:00,
2013-04-30 10:52:00,67.0,16.0,-100.00,SW,214,19.0,31.0,14,0.00,,,0.00,752.000000,,2013-04-30 17:52:00,
2013-04-30 11:01:00,67.0,16.0,-100.00,SW,214,19.0,31.0,14,0.00,,,0.00,752.000000,,2013-04-30 18:01:00,
2013-04-30 11:11:00,67.0,16.0,-100.00,SW,214,19.0,31.0,14,0.00,,,0.00,752.000000,,2013-04-30 18:11:00,
2013-04-30 11:42:00,70.0,17.0,-100.00,SW,215,20.0,33.0,13,0.00,,,0.00,809.000000,,2013-04-30 18:42:00,
2013-04-30 11:52:00,70.0,17.0,-100.00,SW,215,20.0,33.0,13,0.00,,,0.00,809.000000,,2013-04-30 18:52:00,
2013-04-30 12:01:00,70.0,17.0,-100.00,SW,215,20.0,33.0,13,0.00,,,0.00,809.000000,,2013-04-30 19:01:00,
2013-04-30 12:11:00,70.0,17.0,-100.00,SW,215,20.0,33.0,13,0.00,,,0.00,809.000000,,2013-04-30 19:11:00,
2013-04-30 12:42:00,71.0,12.0,-100.00,SSW,198,22.0,38.0,10,0.00,,,0.00,1058.000000,,2013-04-30 19:42:00,
2013-04-30 12:52:00,71.0,12.0,-100.00,SSW,198,22.0,38.0,10,0.00,,,0.00,1058.000000,,2013-04-30 19:52:00,
2013-04-30 13:02:00,71.0,12.0,-100.00,SSW,198,22.0,38.0,10,0.00,,,0.00,1058.000000,,2013-04-30 20:02:00,
2013-04-30 13:11:00,71.0,12.0,-100.00,SSW,198,22.0,38.0,10,0.00,,,0.00,1058.000000,,2013-04-30 20:11:00,
2013-04-30 13:42:00,73.0,13.0,-100.00,SW,222,19.0,41.0,10,0.00,,,0.00,1032.000000,,2013-04-30 20:42:00,
2013-04-30 13:52:00,73.0,13.0,-100.00,SW,222,19.0,41.0,10,0.00,,,0.00,1032.000000,,2013-04-30 20:52:00,
2013-04-30 14:01:00,73.0,13.0,-100.00,SW,222,19.0,41.0,10,0.00,,,0.00,1032.000000,,2013-04-30 21:01:00,
2013-04-30 14:11:00,73.0,13.0,-100.00,SW,222,19.0,41.0,10,0.00,,,0.00,1032.000000,,2013-04-30 21:11:00,
2013-04-30 14:42:00,70.0,13.0,-100.00,SSW,213,21.0,39.0,11,0.00,,,0.00,685.000000,,2013-04-30 21:42:00,
2013-04-30 14:53:00,70.0,13.0,-100.00,SSW,213,21.0,39.0,11,0.00,,,0.00,685.000000,,2013-04-30 21:53:00,
2013-04-30 15:02:00,70.0,13.0,-100.00,SSW,213,21.0,39.0,11,0.00,,,0.00,685.000000,,2013-04-30 22:02:00,
2013-04-30 15:12:00,70.0,13.0,-100.00,SSW,213,21.0,39.0,11,0.00,,,0.00,685.000000,,2013-04-30 22:12:00,
2013-04-30 15:42:00,72.0,12.0,-100.00,SSW,211,20.0,36.0,10,0.00,,,0.00,798.000000,,2013-04-30 22:42:00,
2013-04-30 15:53:00,72.0,12.0,-100.00,SSW,211,20.0,36.0,10,0.00,,,0.00,798.000000,,2013-04-30 22:53:00,
2013-04-30 16:02:00,72.0,12.0,-100.00,SSW,211,20.0,36.0,10,0.00,,,0.00,798.000000,,2013-04-30 23:02:00,
2013-04-30 16:11:00,72.0,12.0,-100.00,SSW,211,20.0,36.0,10,0.00,,,0.00,798.000000,,2013-04-30 23:11:00,
2013-04-30 16:42:00,71.0,9.0,-100.00,WSW,241,21.0,35.0,9,0.00,,,0.00,696.000000,,2013-04-30 23:42:00,
2013-04-30 16:52:00,71.0,9.0,-100.00,WSW,241,21.0,35.0,9,0.00,,,0.00,696.000000,,2013-04-30 23:52:00,
2013-04-30 17:01:00,71.0,9.0,-100.00,WSW,241,21.0,35.0,9,0.00,,,0.00,696.000000,,2013-05-01 00:01:00,
2013-04-30 17:11:00,71.0,9.0,-100.00,WSW,241,21.0,35.0,9,0.00,,,0.00,696.000000,,2013-05-01 00:11:00,
2013-04-30 17:32:00,70.0,11.0,-100.00,SW,236,17.0,30.0,10,0.00,,,0.00,484.000000,,2013-05-01 00:32:00,
2013-04-30 17:42:00,70.0,11.0,-100.00,SW,236,17.0,30.0,10,0.00,,,0.00,484.000000,,2013-05-01 00:42:00,
2013-04-30 17:52:00,70.0,11.0,-100.00,SW,236,17.0,30.0,10,0.00,,,0.00,484.000000,,2013-05-01 00:52:00,
2013-04-30 18:01:00,70.0,11.0,-100.00,SW,236,17.0,30.0,10,0.00,,,0.00,484.000000,,2013-05-01 01:01:00,
2013-04-30 18:11:00,70.0,11.0,-100.00,SW,236,17.0,30.0,10,0.00,,,0.00,484.000000,,2013-05-01 01:11:00,
2013-04-30 18:42:00,66.0,8.0,-100.00,WSW,244,17.0,29.0,10,0.00,,,0.00,215.000000,,2013-05-01 01:42:00,
2013-04-30 18:52:00,66.0,8.0,-100.00,WSW,244,17.0,29.0,10,0.00,,,0.00,215.000000,,2013-05-01 01:52:00,
2013-04-30 19:02:00,66.0,8.0,-100.00,WSW,244,17.0,29.0,10,0.00,,,0.00,215.000000,,2013-05-01 02:02:00,
2013-04-30 19:11:00,66.0,8.0,-100.00,WSW,244,17.0,29.0,10,0.00,,,0.00,215.000000,,2013-05-01 02:11:00,
2013-04-30 19:42:00,62.0,9.0,-100.00,SW,229,9.0,24.0,12,0.00,,,0.00,38.000000,,2013-05-01 02:42:00,
2013-04-30 19:52:00,62.0,9.0,-100.00,SW,229,9.0,24.0,12,0.00,,,0.00,38.000000,,2013-05-01 02:52:00,
2013-04-30 20:01:00,62.0,9.0,-100.00,SW,229,9.0,24.0,12,0.00,,,0.00,38.000000,,2013-05-01 03:01:00,
2013-04-30 20:11:00,62.0,9.0,-100.00,SW,229,9.0,24.0,12,0.00,,,0.00,38.000000,,2013-05-01 03:11:00,
2013-04-30 20:43:00,58.0,9.0,-100.00,SW,224,7.0,15.0,14,0.00,,,-99.99,1.000000,,2013-05-01 03:43:00,
2013-04-30 20:53:00,58.0,9.0,-100.00,SW,224,7.0,15.0,14,0.00,,,-99.99,1.000000,,2013-05-01 03:53:00,
2013-04-30 21:03:00,58.0,9.0,-100.00,SW,224,7.0,15.0,14,0.00,,,-99.99,1.000000,,2013-05-01 04:03:00,
2013-04-30 21:12:00,58.0,9.0,-100.00,SW,224,7.0,15.0,14,0.00,,,-99.99,1.000000,,2013-05-01 04:12:00,
2013-04-30 21:32:00,55.0,10.0,-100.00,SSW,193,6.0,9.0,16,0.00,,,0.00,0.000000,,2013-05-01 04:32:00,
2013-04-30 21:43:00,55.0,10.0,-100.00,SSW,193,6.0,9.0,16,0.00,,,0.00,0.000000,,2013-05-01 04:43:00,
2013-04-30 21:52:00,55.0,10.0,-100.00,SSW,193,6.0,9.0,16,0.00,,,0.00,0.000000,,2013-05-01 04:52:00,
2013-04-30 22:02:00,55.0,10.0,-100.00,SSW,193,6.0,9.0,16,0.00,,,0.00,0.000000,,2013-05-01 05:02:00,
2013-04-30 22:11:00,55.0,10.0,-100.00,SSW,193,6.0,9.0,16,0.00,,,0.00,0.000000,,2013-05-01 05:11:00,
2013-04-30 22:42:00,55.0,11.0,-100.00,SSW,210,7.0,10.0,17,0.00,,,-99.99,0.000000,,2013-05-01 05:42:00,
2013-04-30 22:52:00,55.0,11.0,-100.00,SSW,210,7.0,10.0,17,0.00,,,-99.99,0.000000,,2013-05-01 05:52:00,
2013-04-30 23:02:00,55.0,11.0,-100.00,SSW,210,7.0,10.0,17,0.00,,,-99.99,0.000000,,2013-05-01 06:02:00,
2013-04-30 23:11:00,55.0,11.0,-100.00,SSW,210,7.0,10.0,17,0.00,,,-99.99,0.000000,,2013-05-01 06:11:00,
2013-04-30 23:42:00,55.0,10.0,-100.00,SSW,209,10.0,16.0,16,0.00,,,0.00,0.000000,,2013-05-01 06:42:00,
2013-04-30 23:52:00,55.0,10.0,-100.00,SSW,209,10.0,16.0,16,0.00,,,0.00,0.000000,,2013-05-01 06:52:00,